Tracking 17925 objects as of 21-January-2017
HD Live streaming from Space Station
objects crossing your sky now

GLOBALSTAR M006

Track GLOBALSTAR M006 now!
10-day predictions
GLOBALSTAR M006 is classified as:


NORAD ID: 25307
Int'l Code: 1998-023B
Perigee: 1,879.5 km
Apogee: 1,881.2 km
Inclination: 52.0 °
Period: 124.3 minutes
Semi major axis: 8251 km
RCS: 2.7065 m2 (large)
Launch date: April 24, 1998
Source: Globalstar (GLOB)
Launch site: AIR FORCE EASTERN TEST RANGE (AFETR)
Your satellite tracking list
Your tracking list is empty





NASA's NSSDC Master Catalog

Two Line Element Set (TLE):
1 25307U 98023B   17020.08100378 -.00000076  00000-0 -10905-4 0  9990
2 25307  51.9953 303.0719 0001035  12.7832  85.6645 11.58293350861226
Source of the keplerian elements: AFSPC